Date,TemperatureHighF,TemperatureAvgF,TemperatureLowF,DewpointHighF,DewpointAvgF,DewpointLowF,HumidityHigh,HumidityAvg,HumidityLow,PressureMaxIn,PressureMinIn,WindSpeedMaxMPH,WindSpeedAvgMPH,GustSpeedMaxMPH,PrecipitationSumIn
2013-1-1,79.3,66.6,56.1,62.6,57.1,51.0,87,73,54,278.17,29.85,18,1,18,0.00
2013-1-2,81.5,69.5,-21.1,70.1,63.6,-24.4,90,82,67,29.89,29.81,15,1,15,0.00
2013-1-3,75.3,66.4,59.3,68.2,62.6,-0.8,92,88,75,29.98,29.84,28,1,28,0.30
2013-1-4,61.7,59.0,56.1,58.2,56.1,53.7,92,90,84,30.10,29.96,12,3,12,0.12
2013-1-5,74.3,64.5,57.0,62.1,57.5,51.9,91,79,64,30.11,29.99,11,2,11,0.00
2013-1-6,81.5,68.7,62.4,71.2,63.5,58.5,91,84,70,30.02,29.88,11,0,11,0.04
2013-1-7,65.3,63.0,60.0,62.6,58.7,54.9,91,86,76,30.03,29.92,15,3,15,0.02
2013-1-8,83.8,71.4,62.2,71.0,64.2,0.0,92,79,60,30.03,29.93,9,1,9,0.00
2013-1-9,86.7,75.7,68.3,72.5,67.4,64.0,92,77,56,30.10,29.98,7,0,7,0.00
2013-1-10,84.7,74.8,68.5,70.5,66.1,62.4,91,76,54,30.11,30.01,11,0,11,0.00
2013-1-11,86.1,74.2,66.9,69.2,64.3,61.4,86,72,50,30.08,29.95,17,1,17,0.00
2013-1-12,85.8,73.5,66.7,70.3,65.3,62.4,88,77,54,30.00,29.89,10,0,10,0.00
2013-1-13,84.0,73.3,67.2,69.3,64.5,62.2,85,75,57,29.99,29.87,8,0,8,0.00
2013-1-14,82.9,71.7,64.2,67.1,61.9,-32.3,87,72,52,30.00,29.92,9,0,9,0.00
2013-1-15,84.3,70.9,61.5,68.2,62.2,57.3,88,75,54,29.96,29.87,12,0,12,0.00
2013-1-16,84.9,71.8,64.0,68.5,62.8,59.4,88,75,50,29.92,29.82,12,1,12,0.00
2013-1-17,72.3,63.2,54.1,68.6,57.2,44.4,90,81,66,29.97,29.81,14,2,14,0.08
2013-1-18,63.5,49.6,0.0,54.3,41.2,-7.2,75,73,67,30.13,29.97,21,4,21,0.00
2013-1-19,75.5,63.2,55.2,60.2,53.5,47.0,82,71,57,30.09,29.94,16,3,16,0.00
2013-1-20,77.1,66.9,61.1,63.3,58.7,49.5,85,75,57,30.00,29.85,14,1,14,0.00
2013-1-21,76.6,66.2,60.4,64.2,57.3,51.7,85,74,61,29.92,29.84,8,0,8,0.00
2013-1-22,67.1,60.4,52.8,51.9,42.4,33.7,74,53,34,30.10,29.90,16,2,16,0.00
2013-1-23,71.2,58.0,49.6,42.7,39.9,35.0,72,53,33,30.19,30.08,12,0,12,0.00
2013-1-24,74.1,59.1,48.3,51.6,47.3,41.4,82,67,41,30.16,30.07,12,1,12,0.00
2013-1-25,78.0,61.9,52.5,57.8,50.2,47.0,86,68,41,30.13,30.01,32,0,32,0.00
2013-1-26,76.1,62.7,51.6,59.0,53.5,46.6,86,73,52,30.11,29.99,9,0,9,0.00
2013-1-27,79.5,66.4,55.0,60.3,54.8,50.3,89,68,44,30.13,30.02,13,1,13,0.00
2013-1-28,84.0,71.9,63.6,66.2,61.5,56.4,87,71,49,30.14,30.01,9,1,9,0.00
2013-1-29,87.9,72.9,64.0,69.6,64.2,59.7,89,75,50,30.05,29.90,15,2,15,0.00
2013-1-30,82.9,73.4,67.1,67.9,65.2,62.5,85,76,59,29.91,29.73,38,7,38,0.00
2013-1-31,70.5,58.5,48.3,65.8,45.7,34.8,89,64,41,30.06,29.73,16,1,16,0.14
2013-2-1,69.8,56.9,48.0,42.0,37.0,0.0,73,50,26,30.18,30.04,17,1,17,0.00
2013-2-2,76.8,59.3,49.8,48.4,42.7,37.5,74,56,29,30.13,29.98,13,1,13,0.00
2013-2-3,72.5,58.0,45.6,54.2,47.2,39.2,81,68,51,30.03,29.92,9,0,9,0.00
2013-2-4,76.8,58.2,46.4,52.4,43.7,39.7,81,62,30,29.97,29.86,7,0,7,0.00
2013-2-5,80.2,62.5,48.9,55.9,48.6,41.6,78,62,42,29.92,29.82,15,1,15,0.00
2013-2-6,84.7,70.4,61.1,62.4,58.6,52.8,82,68,46,29.93,29.84,12,1,12,0.00
2013-2-7,84.2,71.2,64.5,66.1,63.0,58.2,88,76,51,29.87,29.64,28,5,28,0.12
2013-2-8,78.6,68.0,58.6,64.9,60.5,4.9,89,78,56,29.91,29.72,10,1,10,0.02
2013-2-9,79.3,65.7,56.6,55.9,54.0,52.1,89,68,43,30.02,29.89,14,3,14,0.00
2013-2-10,85.8,71.4,62.4,64.6,59.5,54.4,82,68,46,30.06,29.94,86,3,86,0.00
2013-2-11,85.8,72.8,64.5,68.0,62.9,58.3,86,72,54,30.02,29.90,61,4,61,0.00
2013-2-12,84.9,73.7,67.2,71.9,67.4,63.5,89,81,65,29.92,29.77,20,5,20,0.00
2013-2-13,84.0,72.3,61.7,73.4,67.1,55.5,92,84,70,29.83,29.68,20,5,20,0.10
2013-2-14,65.3,62.6,60.0,60.9,58.4,56.6,90,86,80,29.88,29.74,9,0,9,0.55
2013-2-15,69.8,61.4,57.3,59.1,55.0,50.6,91,80,60,29.91,29.78,9,1,9,0.04
2013-2-16,69.0,58.2,51.8,54.2,47.0,36.1,85,67,50,29.96,29.77,16,2,16,0.00
2013-2-17,56.8,48.5,41.3,37.0,28.0,9.4,68,46,31,30.17,29.96,20,3,20,0.00
2013-2-18,73.9,55.2,38.4,47.6,38.9,29.8,72,56,38,30.18,30.02,11,2,11,0.00
2013-2-19,81.1,66.6,54.3,61.2,55.0,46.1,82,67,50,30.03,29.91,20,3,20,0.00
2013-2-20,75.9,64.0,60.6,62.1,58.1,53.7,87,81,63,29.92,2.11,6,0,6,0.00
2013-2-21,80.8,64.4,60.0,67.5,58.2,53.9,86,80,64,29.89,29.82,5,0,5,0.00
2013-2-22,83.8,70.1,63.6,69.9,63.8,59.3,87,81,63,29.86,29.82,9,2,9,0.00
2013-2-23,86.3,74.2,69.4,73.9,68.7,65.7,90,84,66,29.83,29.72,18,4,18,0.00
2013-2-24,84.0,73.6,69.6,71.9,68.1,65.9,90,83,66,29.79,29.70,12,2,12,0.00
2013-2-25,86.3,75.5,68.9,73.0,68.7,0.0,91,80,61,29.72,29.59,20,3,20,0.00
2013-2-26,77.3,72.1,66.3,70.8,66.6,60.7,89,83,71,29.72,29.52,26,3,26,0.45
2013-2-27,75.0,66.0,59.1,60.7,56.5,51.3,84,72,55,29.81,29.69,5,0,5,0.00
2013-2-28,75.9,63.7,54.5,57.0,52.4,-5.5,85,68,49,29.83,29.74,9,0,9,0.00
2013-3-1,66.7,58.1,53.4,48.5,44.4,0.0,76,61,51,29.86,29.74,8,0,8,0.00
2013-3-2,59.9,54.7,50.7,43.2,40.0,-32.3,70,58,51,29.91,29.81,57,0,57,0.00
2013-3-3,55.9,49.5,44.2,38.8,35.2,2.4,64,58,52,29.99,29.82,13,1,13,0.00
2013-3-4,69.4,54.5,17.9,43.9,37.6,0.2,71,54,36,30.06,29.95,57,1,57,0.00
2013-3-5,77.5,61.9,44.7,60.2,50.9,10.0,82,68,51,29.99,29.86,13,2,13,0.00
2013-3-6,66.0,59.6,53.7,62.2,46.6,39.5,88,63,43,29.97,29.79,13,3,13,0.00
2013-3-7,71.7,54.4,46.5,44.8,38.2,33.4,76,56,36,30.06,29.95,16,2,16,0.00
2013-3-8,76.6,58.7,45.6,47.6,43.6,39.4,82,61,33,30.06,29.95,10,1,10,0.00
2013-3-9,77.5,63.8,51.0,50.8,47.3,10.0,79,57,35,30.04,29.94,15,1,15,0.00
2013-3-10,85.4,68.5,59.1,58.4,54.5,50.3,80,62,39,29.98,29.86,12,2,12,0.00
2013-3-11,81.5,69.9,61.5,63.0,58.5,3.2,80,68,52,29.93,29.72,64,4,64,0.00
2013-3-12,68.9,64.5,57.0,65.3,58.1,0.0,90,80,68,29.88,29.67,18,3,18,0.47
2013-3-13,73.9,61.9,55.7,51.1,44.9,28.0,80,56,30,30.01,29.86,19,2,19,0.00
2013-3-14,67.6,58.1,52.1,48.4,38.4,30.8,73,50,27,30.11,29.99,16,1,16,0.00
2013-3-15,72.5,58.2,45.5,45.2,41.0,35.4,80,56,31,30.12,29.98,12,1,12,0.00
2013-3-16,81.8,62.0,48.2,55.8,48.7,42.2,82,64,35,30.02,29.90,11,1,11,0.00
2013-3-17,81.6,65.6,53.4,62.2,55.7,48.0,87,72,50,29.95,29.82,13,1,13,0.00
2013-3-18,74.1,68.4,62.6,66.3,61.5,55.8,87,79,72,29.85,29.71,13,2,13,0.00
2013-3-19,88.3,71.6,63.3,68.4,62.9,59.8,90,76,48,29.84,29.72,12,1,12,0.00
2013-3-20,73.5,67.0,60.2,65.5,61.2,56.6,89,82,69,29.80,29.63,14,1,14,0.19
2013-3-21,70.5,60.1,50.1,57.2,44.7,36.0,90,61,30,29.83,29.70,16,1,16,0.00
2013-3-22,82.0,63.6,48.3,65.1,52.3,40.8,88,68,43,29.82,29.70,16,2,16,0.08
2013-3-23,84.0,72.5,66.0,74.8,67.6,0.0,91,85,71,29.79,29.62,21,3,21,0.00
2013-3-24,81.3,73.5,70.1,74.0,69.5,65.6,91,88,77,29.67,29.48,21,4,21,0.00
2013-3-25,70.7,62.8,55.5,65.4,49.1,0.0,89,63,38,29.89,29.57,13,2,13,0.00
2013-3-26,58.8,54.9,49.1,46.0,37.8,34.5,66,53,43,30.08,29.87,12,2,12,0.00
2013-3-27,59.9,51.6,45.6,39.2,35.6,-17.8,70,55,42,30.16,30.04,12,2,12,0.00
2013-3-28,73.9,56.7,-21.3,42.6,37.7,-26.7,79,53,26,30.13,30.02,12,1,12,0.00
2013-3-29,80.4,62.1,48.5,49.0,43.5,39.6,80,54,26,30.15,30.01,12,1,12,0.00
2013-3-30,80.4,65.2,51.9,57.6,51.0,44.4,79,62,41,30.08,29.96,61,2,61,0.00
2013-3-31,84.0,69.4,57.7,60.8,57.0,50.4,79,66,44,29.99,29.83,18,3,18,0.00
2013-4-1,82.4,72.9,67.1,69.5,64.4,59.8,85,75,61,29.86,29.79,10,2,10,0.00
2013-4-2,85.8,71.9,63.3,67.2,62.0,0.0,88,73,51,29.92,29.82,14,1,14,0.00
2013-4-3,89.2,74.1,65.6,70.6,64.7,59.3,87,74,50,29.90,29.76,20,2,20,0.04
2013-4-4,73.5,70.0,67.2,67.9,66.0,63.6,91,87,77,29.87,29.67,14,3,14,0.67
2013-4-5,73.2,67.6,62.4,66.4,60.5,54.7,90,79,57,29.82,29.64,14,2,14,0.02
2013-4-6,80.4,65.9,57.2,60.1,55.4,50.5,83,70,47,29.93,29.80,15,2,15,0.00
2013-4-7,87.9,72.4,62.2,64.5,59.1,56.6,86,65,41,29.97,29.86,6,1,8,0.00
2013-4-8,91.0,75.7,67.1,63.8,60.6,20.8,78,62,36,29.95,29.85,8,0,8,0.00
2013-4-9,92.1,76.9,68.0,67.5,63.8,3.4,82,65,44,29.98,29.88,9,1,9,0.00
2013-4-10,92.4,77.4,66.5,68.8,64.6,61.0,85,66,42,29.94,29.77,9,0,9,0.00
2013-4-11,93.7,79.5,72.1,74.1,69.9,64.1,88,74,52,29.81,29.63,24,4,24,0.02
2013-4-12,79.3,76.4,72.1,73.8,71.1,67.0,87,84,78,29.75,29.60,21,4,21,0.00
2013-4-13,89.9,76.7,69.0,71.2,67.0,62.7,89,73,51,29.80,29.69,8,1,8,0.00
2013-4-14,86.7,76.0,66.7,74.7,68.0,60.1,86,77,65,29.83,29.67,20,3,20,0.08
2013-4-15,94.2,78.2,68.3,72.1,65.9,60.4,82,67,48,29.89,29.75,8,0,8,0.00
2013-4-16,95.9,80.5,-3.8,73.8,67.9,-7.9,89,68,45,29.95,29.84,12,2,12,0.00
2013-4-17,92.3,79.1,69.9,68.1,65.1,61.5,85,64,42,29.96,29.82,12,2,12,0.00
2013-4-18,93.7,80.2,71.2,71.7,67.8,63.5,82,67,49,29.87,29.76,13,2,13,0.00
2013-4-19,91.9,80.8,73.5,75.0,71.1,68.7,86,73,53,29.83,29.75,27,5,27,0.00
2013-4-20,77.1,70.6,62.7,71.4,63.1,57.1,86,77,66,29.96,29.80,14,3,14,0.00
2013-4-21,86.7,71.3,61.5,70.2,63.3,56.6,88,77,57,29.96,29.84,14,3,14,0.02
2013-4-22,81.6,73.2,68.3,69.7,66.2,61.9,91,79,60,29.91,29.79,13,3,13,0.02
2013-4-23,87.4,75.1,66.7,68.3,63.1,59.4,84,68,46,29.93,29.82,13,3,13,0.00
2013-4-24,91.2,75.8,65.3,65.0,62.3,59.6,83,65,36,29.96,29.88,10,1,10,0.00
2013-4-25,87.6,76.0,65.8,69.1,64.6,3.0,83,69,51,30.03,29.92,10,1,10,0.00
2013-4-26,91.9,77.7,66.3,68.8,65.0,-30.4,83,67,42,30.06,29.96,11,1,11,0.00
2013-4-27,90.6,75.7,70.7,68.3,66.2,63.7,86,73,41,30.04,29.89,11,1,11,0.00
2013-4-28,91.7,78.6,70.3,66.3,64.5,62.2,77,63,39,29.94,29.78,12,2,12,0.00
2013-4-29,85.8,77.1,69.8,70.1,66.7,62.7,82,71,56,29.85,29.72,11,2,11,0.16
2013-4-30,92.4,73.9,69.0,71.3,67.9,0.0,91,82,43,29.82,29.72,10,1,10,0.73
2013-5-1,74.8,71.3,67.4,71.0,67.6,64.4,91,88,84,29.82,29.73,11,1,11,1.19
2013-5-2,80.9,72.3,66.7,73.1,67.4,0.0,91,85,68,29.79,29.63,8,1,8,0.73
2013-5-3,84.0,75.8,68.5,70.9,68.3,64.2,91,79,61,29.66,29.54,10,1,10,0.39
2013-5-4,81.3,73.0,67.1,69.7,65.7,62.9,88,78,65,29.64,29.50,11,1,11,0.39
2013-5-5,81.6,70.0,63.6,65.0,56.2,51.0,90,63,44,29.77,29.62,14,1,14,0.39
2013-5-6,81.6,70.5,63.1,61.8,56.9,53.1,74,63,46,29.84,29.72,8,0,8,0.39
2013-5-7,81.8,69.6,29.8,61.4,57.7,20.5,81,67,50,29.88,29.79,12,1,12,0.39
2013-5-8,80.9,71.6,61.7,63.3,60.1,56.5,84,68,49,29.96,29.85,8,1,8,0.39
2013-5-9,89.4,74.1,63.3,68.2,62.4,58.1,85,68,45,29.98,29.90,8,0,8,0.39
2013-5-10,92.1,77.7,66.5,71.4,66.5,61.0,88,70,45,29.96,29.81,13,1,13,0.39
2013-5-11,89.6,79.1,73.5,74.4,71.0,-23.9,89,77,53,29.88,29.81,13,2,13,0.39
2013-5-12,88.1,78.3,72.1,73.4,69.3,-17.5,89,75,59,29.87,29.76,8,1,8,0.39
2013-5-13,84.2,73.5,67.4,67.4,58.7,48.7,85,63,35,29.96,29.83,8,0,8,0.39
2013-5-14,87.4,71.9,63.3,58.4,49.5,45.5,65,47,29,30.03,29.93,13,1,13,0.00
2013-5-15,88.7,76.8,66.7,61.8,58.2,55.2,73,54,34,30.03,29.88,12,0,12,0.00
2013-5-16,89.4,77.9,70.3,66.5,62.5,59.5,75,60,40,29.95,29.81,11,0,11,0.00
2013-5-17,88.8,78.7,70.8,68.4,65.2,62.3,77,64,47,29.92,29.84,11,1,11,0.00
2013-5-18,91.4,79.6,72.6,72.7,68.5,64.4,86,71,44,29.93,29.86,10,1,10,0.00
2013-5-19,90.3,80.2,70.3,72.8,66.7,64.8,88,65,46,29.91,29.80,8,0,8,0.00
2013-5-20,92.8,80.7,74.4,73.5,68.9,64.9,79,68,50,29.89,29.78,11,1,11,0.00
2013-5-21,90.3,78.3,72.1,71.9,68.8,66.1,87,74,51,29.86,29.74,12,1,12,0.00
2013-5-22,91.2,79.6,73.0,73.2,69.4,67.2,84,72,53,29.79,29.71,7,1,7,0.00
2013-5-23,89.7,79.8,71.4,73.3,70.1,67.3,89,73,57,29.83,29.73,8,1,8,0.00
2013-5-24,93.2,81.6,72.5,74.8,69.3,63.1,89,68,44,29.90,29.80,9,0,9,0.00
2013-5-25,92.3,82.4,74.8,69.4,65.0,61.2,76,57,38,29.99,29.87,13,2,13,0.00
2013-5-26,88.3,78.8,70.8,63.9,59.0,53.3,73,53,33,30.03,29.91,12,2,12,0.00
2013-5-27,91.0,79.9,71.2,68.6,63.4,60.6,77,59,40,30.00,29.85,12,2,12,0.00
2013-5-28,93.7,79.7,72.3,73.5,69.5,64.8,84,72,47,29.96,29.84,18,3,18,0.00
2013-5-29,91.4,80.2,73.5,73.4,70.1,67.4,88,73,51,29.91,29.83,14,3,14,0.00
2013-5-30,91.2,81.0,75.5,72.7,70.6,67.8,86,72,54,29.90,29.81,15,4,15,0.00
2013-5-31,89.9,79.6,74.4,75.1,70.7,67.9,84,75,58,29.90,29.81,12,2,12,0.00
2013-6-1,90.3,79.2,74.3,76.3,72.4,69.6,91,80,62,29.87,29.76,9,1,9,0.02
2013-6-2,91.0,81.1,73.5,79.3,73.7,70.9,93,79,61,29.82,29.71,10,1,10,0.00
2013-6-3,87.9,80.6,76.1,76.8,73.5,71.3,90,80,64,29.82,29.72,15,2,15,0.00
2013-6-4,86.5,80.4,75.9,75.6,72.7,70.8,86,78,66,29.83,29.75,11,2,11,0.00
2013-6-5,86.5,78.9,73.9,74.6,71.9,69.6,89,79,65,29.83,29.70,13,1,13,0.00
2013-6-6,80.7,76.1,73.5,76.0,72.4,69.8,95,88,77,29.71,29.47,30,5,30,4.04
2013-6-7,86.5,80.0,73.0,76.5,72.6,69.4,92,79,66,29.78,29.60,9,1,9,0.00
2013-6-8,89.7,79.7,72.6,77.5,73.2,69.5,92,81,66,29.91,29.77,15,2,15,1.29
2013-6-9,91.9,80.3,72.8,77.4,73.3,70.0,93,80,60,29.91,29.82,13,1,13,0.00
2013-6-10,90.3,82.6,76.2,77.3,73.7,11.3,89,75,59,29.90,29.82,9,1,9,0.00
2013-6-11,90.3,81.3,75.3,78.4,74.1,70.1,89,79,64,29.91,29.83,10,1,10,0.00
2013-6-12,93.0,82.7,73.9,79.1,73.2,69.9,91,74,56,29.91,29.82,9,0,9,0.00
2013-6-13,91.7,83.0,76.4,76.4,73.5,0.0,88,74,56,29.87,29.73,71,1,71,0.00
2013-6-14,88.5,82.2,77.7,74.3,72.8,71.4,82,74,59,29.78,29.70,12,1,12,0.00
2013-6-15,89.4,82.7,77.5,77.9,74.7,13.4,88,77,64,29.87,29.73,8,1,8,0.00
2013-6-16,93.0,83.7,78.0,78.5,75.4,73.1,88,77,60,29.90,29.82,10,1,10,0.00
2013-6-17,93.9,85.2,77.3,80.5,74.4,72.6,87,71,54,29.90,29.80,10,1,10,0.00
2013-6-18,93.3,84.6,76.1,79.6,74.3,71.6,88,72,54,29.87,29.78,10,1,10,0.00
2013-6-19,96.0,85.2,77.7,78.6,75.2,72.8,90,73,54,29.86,29.79,9,1,9,0.00
2013-6-20,97.7,84.5,77.5,78.8,73.7,69.3,86,71,49,29.93,29.82,9,1,9,0.00
2013-6-21,91.4,81.8,75.5,75.9,71.7,68.5,85,73,54,29.93,29.85,10,1,10,0.00
2013-6-22,91.9,82.1,73.5,76.5,71.4,67.2,88,72,52,29.93,29.85,15,1,15,0.00
2013-6-23,92.8,81.0,74.8,78.1,73.1,0.0,90,78,51,29.95,29.87,14,1,14,0.04
2013-6-24,93.9,83.5,76.4,77.5,73.5,70.7,89,74,50,30.00,29.86,17,1,17,0.00
2013-6-25,93.9,83.1,72.1,79.2,72.9,64.7,90,73,48,29.96,29.83,14,1,14,1.08
2013-6-26,91.7,80.8,74.8,79.4,73.9,71.0,92,80,58,29.90,29.82,9,1,9,1.47
2013-6-27,93.5,82.2,73.7,79.9,73.9,69.7,92,77,59,29.87,29.76,12,1,12,0.00
2013-6-28,89.2,82.7,76.1,77.3,74.7,72.3,90,77,64,29.80,29.66,13,1,13,0.00
2013-6-29,82.5,79.1,75.0,76.9,73.9,70.8,89,84,76,29.71,29.62,21,1,21,0.24
2013-6-30,88.3,81.3,75.3,78.4,75.0,71.2,89,81,70,29.70,29.61,17,3,17,0.00
2013-7-1,79.2,76.2,72.5,75.9,73.3,69.2,94,91,87,29.84,29.65,14,4,14,84.35
2013-7-2,78.6,70.5,0.0,75.6,67.7,0.0,100,91,88,29.90,29.77,14,4,14,0.98
2013-7-3,82.9,21.2,0.0,70.9,10.3,-10.6,100,86,60,29.92,29.84,11,2,11,1.43
2013-7-4,91.2,80.5,75.9,77.1,71.1,66.1,86,74,53,29.93,29.86,14,1,14,0.20
2013-7-5,90.3,55.3,-20.0,77.9,48.4,-32.2,91,77,52,29.93,29.88,11,1,11,70.71
2013-7-6,93.3,82.6,75.3,77.7,74.4,71.6,91,78,53,29.92,29.83,10,1,10,0.00
2013-7-7,94.8,72.3,0.0,75.2,64.1,-4.2,100,78,53,29.94,29.83,11,2,11,0.00
2013-7-8,94.2,81.8,77.1,76.9,64.8,-13.4,85,65,51,29.97,29.87,9,1,9,0.02
2013-7-9,92.6,82.3,77.1,80.2,71.3,-8.3,85,73,50,29.98,29.85,10,1,10,0.00
2013-7-10,86.1,79.5,78.2,71.2,64.7,-14.2,79,66,50,29.91,29.77,11,1,11,0.00
2013-7-11,88.5,83.9,64.0,82.7,59.0,-14.2,95,67,45,29.85,29.73,11,1,11,0.57
2013-7-12,89.2,81.3,75.5,78.1,64.5,-10.6,91,78,35,29.77,29.70,8,1,8,71.32
2013-7-13,87.4,79.4,73.2,76.8,73.3,17.5,96,82,67,29.78,29.73,13,1,13,0.02
2013-7-14,89.9,75.4,0.0,78.6,67.5,-21.1,100,77,35,29.89,29.77,10,1,10,0.00
2013-7-15,91.4,81.7,75.9,74.3,71.3,-21.6,84,73,55,29.93,29.82,10,1,10,0.00
2013-7-16,91.7,81.3,75.9,74.0,70.4,-7.2,83,73,35,29.96,29.82,12,2,12,0.00
2013-7-17,98.7,80.0,73.2,98.4,69.7,-10.6,99,74,57,29.97,29.88,9,2,9,0.00
2013-7-18,89.4,73.2,0.0,75.5,66.7,0.0,100,82,61,29.93,1.52,16,1,16,0.24
2013-7-19,89.4,78.6,74.3,78.3,73.9,71.4,92,86,69,29.94,29.86,14,1,14,0.98
2013-7-20,91.4,81.1,75.0,79.7,74.8,45.5,93,82,64,29.92,29.83,10,1,10,0.00
2013-7-21,92.1,83.9,76.8,80.2,76.6,72.4,91,79,65,29.94,29.85,11,1,11,0.00
2013-7-22,92.1,84.9,78.6,80.0,77.2,-28.3,90,78,65,29.95,29.87,12,1,12,0.00
2013-7-23,91.4,84.3,79.5,78.1,75.7,73.9,87,76,63,29.92,29.79,10,1,10,0.00
2013-7-24,89.7,84.0,80.4,77.8,75.9,-24.9,85,77,65,29.83,29.72,13,2,13,0.00
2013-7-25,89.2,83.9,80.4,78.0,76.6,-24.2,85,79,67,29.82,29.69,28,3,28,0.04
2013-7-26,91.7,82.8,76.8,80.3,76.7,73.4,95,83,64,29.84,29.76,9,0,9,0.57
2013-7-27,95.5,84.7,78.0,78.8,75.7,49.0,93,76,53,29.82,29.73,8,0,8,0.00
2013-7-28,93.0,83.6,77.5,78.7,75.1,64.6,89,76,61,29.87,29.75,14,1,14,0.00
2013-7-29,98.0,84.0,76.2,79.7,75.2,72.2,89,76,54,29.96,29.83,16,0,16,0.26
2013-7-30,97.1,84.1,76.2,78.3,75.7,73.3,91,78,49,29.99,29.87,16,1,16,0.65
2013-7-31,95.5,84.3,77.7,79.4,76.0,71.4,93,78,52,29.95,29.82,10,1,10,0.00
2013-8-1,94.1,84.1,79.5,79.9,75.3,49.7,85,75,35,29.87,29.76,10,1,10,0.00
2013-8-2,93.9,83.2,77.0,79.9,75.4,71.7,88,78,61,29.86,29.76,15,0,15,0.14
2013-8-3,93.0,84.7,77.1,79.3,76.1,73.9,91,76,59,29.91,29.82,8,1,8,0.00
2013-8-4,92.4,85.4,-20.9,79.4,76.6,-26.3,89,75,62,29.91,29.81,12,1,12,0.00
2013-8-5,93.5,86.4,80.2,79.8,77.3,51.3,86,75,62,29.86,29.75,9,1,9,0.00
2013-8-6,92.8,83.1,77.0,81.1,77.0,-25.6,89,82,67,29.80,29.70,28,1,28,0.47
2013-8-7,96.0,83.0,75.3,80.1,75.9,47.9,92,80,35,29.79,29.69,14,1,14,0.92
2013-8-8,94.4,82.8,75.0,79.4,76.3,47.9,93,82,58,29.84,29.73,10,1,10,0.78
2013-8-9,95.3,81.6,75.5,78.9,75.3,65.3,92,82,53,29.87,29.77,8,1,8,0.55
2013-8-10,95.7,84.0,76.1,79.0,75.9,73.1,92,78,54,29.93,29.84,13,1,13,0.00
2013-8-11,96.6,86.7,79.5,79.8,76.4,65.7,87,73,53,29.97,29.85,61,1,61,0.00
2013-8-12,95.5,85.6,77.5,80.7,77.3,-24.0,90,77,57,29.94,29.81,22,0,22,0.26
2013-8-13,96.6,85.3,78.0,79.2,76.3,53.3,90,76,35,29.87,29.75,10,1,10,0.00
2013-8-14,96.0,85.2,78.6,79.9,76.8,53.3,86,77,58,29.82,29.74,14,1,14,0.00
2013-8-15,93.0,84.8,78.9,79.4,76.2,-24.7,86,76,62,29.85,29.76,12,2,12,0.00
2013-8-16,96.4,85.7,80.9,79.5,76.3,73.4,82,74,56,29.86,29.77,10,1,10,0.00
2013-8-17,94.8,83.7,75.5,81.3,76.2,71.9,92,79,60,29.89,29.79,15,1,15,0.71
2013-8-18,95.5,82.6,77.0,79.7,76.6,62.9,92,83,58,29.91,29.82,14,1,14,0.18
2013-8-19,96.9,82.4,-10.3,80.5,75.7,-19.7,93,82,52,29.91,29.77,14,1,14,0.59
2013-8-20,95.1,82.3,75.3,80.5,75.8,72.8,93,82,57,29.89,29.80,10,1,10,0.04
2013-8-21,96.9,83.4,77.5,80.8,76.0,70.5,92,80,52,29.92,29.79,14,1,14,0.22
2013-8-22,95.0,81.6,73.7,80.2,76.1,69.1,93,84,58,29.90,29.77,36,1,36,2.77
2013-8-23,94.2,82.3,77.5,80.7,76.4,-13.2,95,83,57,29.84,29.76,30,5,30,0.13
2013-8-24,96.4,80.7,77.1,79.7,75.9,72.8,92,86,54,29.93,29.80,16,0,16,0.00
2013-8-25,89.9,81.3,77.5,77.0,74.7,32.8,90,81,45,29.97,29.88,10,2,10,0.00
2013-8-26,94.6,81.7,76.8,77.9,74.9,71.7,91,81,53,29.95,29.81,16,1,16,0.32
2013-8-27,93.5,82.3,75.9,77.5,74.6,-25.8,92,79,54,29.87,29.78,13,2,13,0.00
2013-8-28,94.1,82.3,75.0,76.3,73.5,71.2,89,76,52,29.87,29.78,11,1,11,0.00
2013-8-29,93.2,83.5,76.1,76.0,73.6,70.9,87,73,55,29.85,29.75,12,0,12,0.00
2013-8-30,91.9,82.4,-11.7,78.6,75.4,-16.1,88,80,61,29.82,29.71,12,1,12,0.10
2013-8-31,92.3,82.7,75.7,78.3,74.9,72.4,91,78,60,29.81,29.70,9,0,9,0.12
2013-9-1,92.8,84.2,78.0,79.4,75.7,73.4,91,77,60,29.80,29.72,9,1,9,0.19
2013-9-2,92.8,83.7,77.9,80.2,75.7,73.7,92,78,59,29.84,29.75,6,0,6,0.19
2013-9-3,93.7,84.0,75.9,79.3,75.9,66.9,93,78,61,29.85,29.75,7,0,7,0.53
2013-9-4,95.7,83.1,76.8,79.8,75.5,71.7,91,79,55,29.91,29.78,13,1,13,0.12
2013-9-5,96.8,83.4,76.8,80.8,75.7,72.3,92,79,52,29.91,29.80,12,1,12,0.55
2013-9-6,96.8,82.1,75.7,80.9,76.2,71.4,93,83,55,29.87,29.75,17,1,17,0.20
2013-9-7,94.2,81.0,73.2,77.4,73.0,-23.0,91,78,53,29.84,29.73,11,1,11,0.00
2013-9-8,93.2,82.7,73.7,75.9,73.1,70.7,92,74,53,29.79,29.67,9,1,9,0.00
2013-9-9,94.8,85.1,77.0,76.2,73.1,69.7,87,69,49,29.84,29.74,11,2,11,0.00
2013-9-10,93.5,84.6,78.0,76.2,72.6,60.6,86,69,47,29.90,29.80,22,3,22,0.00
2013-9-11,95.7,84.7,77.3,75.7,72.7,69.1,87,69,45,29.89,29.79,14,2,14,0.00
2013-9-12,93.9,82.1,76.1,78.0,74.4,-25.4,90,78,58,29.85,29.70,11,1,11,0.17
2013-9-13,88.8,79.6,73.5,78.4,74.4,70.1,93,84,68,29.74,29.63,12,0,12,3.38
2013-9-14,91.2,81.7,75.0,79.6,75.4,72.5,94,82,66,29.79,29.65,6,0,6,0.08
2013-9-15,97.5,81.9,73.9,80.0,75.0,-14.2,92,81,52,29.90,29.77,23,2,23,0.45
2013-9-16,96.0,81.3,75.9,78.6,74.5,72.8,92,81,52,29.89,29.78,9,1,9,0.00
2013-9-17,94.1,81.9,75.9,77.4,74.1,31.7,90,79,55,29.87,29.75,14,2,14,0.00
2013-9-18,95.1,81.7,76.6,78.3,74.5,70.9,89,80,55,29.84,29.77,13,2,13,0.19
2013-9-19,92.1,81.1,75.3,77.7,74.3,72.1,92,81,58,29.87,29.77,13,2,13,0.75
2013-9-20,92.4,82.2,74.4,76.1,72.6,69.4,92,74,53,29.84,29.70,9,1,9,0.00
2013-9-21,93.5,82.9,75.5,75.0,72.0,68.7,82,70,51,29.76,29.59,10,1,10,0.00
2013-9-22,91.5,83.1,79.1,80.3,76.5,73.7,89,81,67,29.67,29.57,14,1,14,0.02
2013-9-23,84.2,79.5,77.5,80.2,76.5,74.5,94,91,86,29.75,29.63,28,1,28,1.14
2013-9-24,80.7,78.1,75.2,77.7,76.1,73.7,97,93,90,29.78,29.66,11,2,11,1.57
2013-9-25,80.7,76.6,71.2,78.1,74.4,69.7,96,93,86,29.75,29.60,15,1,15,2.74
2013-9-26,88.8,82.3,75.9,80.7,76.9,72.1,94,84,70,29.69,29.59,10,1,10,0.00
2013-9-27,88.8,78.9,71.9,74.4,71.2,68.9,91,78,59,29.78,29.68,13,3,13,0.00
2013-9-28,91.9,80.0,73.2,74.8,71.9,56.5,91,77,56,29.83,29.73,13,3,13,0.00
2013-9-29,91.2,77.7,73.0,73.7,70.1,68.4,87,78,52,29.81,29.71,10,2,10,0.00
2013-9-30,93.0,82.0,75.0,75.8,72.2,68.9,86,74,51,29.81,29.72,9,1,9,0.00
2013-10-1,94.2,83.4,75.3,76.7,72.8,69.3,90,72,51,29.86,29.77,13,1,13,0.00
2013-10-2,93.0,82.7,74.8,75.9,72.3,70.3,87,72,54,29.87,29.77,10,2,10,0.00
2013-10-3,92.8,82.8,76.1,74.7,72.0,63.7,85,71,51,29.88,29.78,9,1,9,0.00
2013-10-4,91.9,82.7,78.0,76.4,73.8,58.8,86,75,56,29.90,29.81,8,1,8,0.00
2013-10-5,93.9,83.1,75.9,75.8,72.9,70.5,86,72,53,29.87,29.75,10,1,10,0.00
2013-10-6,94.2,82.9,75.7,76.6,73.6,71.7,90,75,50,29.81,29.67,9,1,9,0.00
2013-10-7,84.9,80.2,76.1,78.8,75.7,72.8,93,86,82,29.69,29.57,15,2,15,17.72
2013-10-8,89.7,81.5,-11.3,78.8,74.7,-16.5,87,80,69,29.77,29.62,11,2,11,17.72
2013-10-9,80.7,76.0,71.4,71.2,69.3,66.0,84,80,68,29.86,29.75,11,2,11,0.00
2013-10-10,90.1,77.2,69.0,72.2,68.0,65.3,88,75,54,29.87,29.77,8,1,8,0.00
2013-10-11,90.5,78.3,69.4,71.6,67.6,64.2,89,71,51,29.87,29.76,8,0,8,0.00
2013-10-12,89.6,77.1,69.4,68.7,65.2,24.5,88,69,45,29.87,29.79,10,1,10,0.00
2013-10-13,89.4,76.9,67.4,72.9,64.8,53.3,88,68,44,29.90,29.80,9,0,9,0.00
2013-10-14,87.9,77.3,69.6,70.3,66.9,53.9,89,72,51,29.87,29.74,11,2,11,0.00
2013-10-15,85.6,75.7,69.8,73.2,68.9,65.9,89,80,64,29.83,29.71,10,2,10,0.00
2013-10-16,85.8,76.1,69.8,74.5,69.3,47.7,91,80,44,29.79,29.71,9,0,9,0.00
2013-10-17,92.3,79.3,71.4,75.2,71.0,-15.3,91,77,56,29.80,29.71,14,1,14,0.00
2013-10-18,94.1,80.7,72.5,77.5,72.6,52.7,91,78,56,29.80,29.71,8,0,8,0.00
2013-10-19,91.9,80.9,75.9,78.5,74.1,71.0,88,80,59,29.77,29.68,11,1,11,0.00
2013-10-20,90.6,80.5,75.5,77.6,73.9,71.2,92,81,61,29.77,29.69,86,0,86,0.00
2013-10-21,91.2,80.5,75.0,77.9,73.4,70.5,92,80,57,29.82,29.73,5,0,5,0.00
2013-10-22,90.8,78.8,72.6,78.6,73.4,52.7,93,84,66,29.77,29.64,14,1,14,0.37
2013-10-23,82.2,75.4,71.2,73.0,65.5,54.8,93,73,48,29.83,29.63,17,1,17,0.02
2013-10-24,74.1,68.9,64.2,60.9,51.8,46.7,73,55,44,29.99,29.82,14,2,14,0.00
2013-10-25,82.9,70.7,61.7,60.9,57.2,54.3,86,65,40,30.06,29.96,10,1,10,0.00
2013-10-26,82.9,70.6,62.7,62.3,57.8,-33.3,80,65,34,30.03,29.91,10,1,10,0.00
2013-10-27,83.1,70.1,62.0,60.9,57.9,54.4,84,67,44,29.95,29.87,11,1,11,0.00
2013-10-28,87.0,72.4,60.6,64.7,58.4,54.3,85,64,39,30.01,29.90,9,0,9,0.00
2013-10-29,86.9,76.1,67.6,68.9,64.6,59.6,87,69,48,30.05,29.94,12,2,12,0.00
2013-10-30,88.7,77.6,69.4,71.3,67.0,48.7,86,71,51,30.05,29.90,12,2,12,0.00
2013-10-31,91.2,78.2,31.6,71.7,68.2,-23.0,87,73,49,29.95,29.79,11,1,11,0.00
2013-11-1,88.3,79.2,73.9,77.1,73.0,53.6,89,82,48,29.82,29.70,17,3,17,0.00
2013-11-2,78.6,73.2,65.4,75.1,68.9,62.1,93,87,76,29.81,29.63,12,1,12,0.92
2013-11-3,80.0,68.5,61.1,62.1,54.3,46.8,92,64,34,29.94,29.79,13,2,13,0.02
2013-11-4,82.2,71.2,62.4,64.0,59.1,51.6,79,66,47,29.97,29.89,15,5,15,0.00
2013-11-5,84.5,75.5,67.6,70.9,67.0,49.3,87,76,62,29.97,29.86,14,4,14,0.00
2013-11-6,89.9,78.4,72.6,70.7,67.8,65.9,84,71,49,29.94,29.82,11,3,11,0.00
2013-11-7,84.0,74.4,-12.5,71.0,67.2,-15.7,88,79,62,29.88,29.79,8,0,8,0.00
2013-11-8,81.3,72.7,66.3,68.3,63.8,-17.6,90,75,46,29.93,29.82,16,4,16,0.00
2013-11-9,84.7,74.6,66.3,69.7,64.5,60.0,81,71,58,29.98,29.89,13,4,13,0.00
2013-11-10,85.1,75.0,68.7,69.6,65.8,-20.5,83,74,57,29.98,29.88,10,2,10,0.00
2013-11-11,84.7,74.2,67.8,70.2,65.9,38.7,89,76,34,29.98,29.87,9,2,9,0.00
2013-11-12,79.8,72.1,67.2,70.8,66.3,57.4,90,82,65,29.93,29.83,14,0,14,0.00
2013-11-13,70.1,62.8,55.7,57.8,51.2,47.6,75,66,59,30.12,29.90,26,6,26,19.05
2013-11-14,79.5,65.7,54.5,60.2,54.6,-27.0,83,69,50,30.11,29.97,15,3,15,0.00
2013-11-15,73.2,69.5,65.1,66.0,62.5,58.2,85,79,70,29.99,29.87,14,2,14,0.02
2013-11-16,78.4,72.9,69.0,71.7,68.3,65.0,90,85,79,29.94,29.84,7,1,7,0.02
2013-11-17,85.8,76.3,70.1,74.2,69.0,25.8,89,79,64,29.90,29.81,8,1,8,0.00
2013-11-18,87.0,76.5,69.8,74.5,70.2,-15.2,90,82,65,29.85,29.75,14,1,14,0.00
2013-11-19,83.6,75.1,68.5,73.4,69.3,-15.4,93,83,69,29.80,29.69,28,2,28,0.00
2013-11-20,84.3,73.0,66.3,73.6,67.2,61.7,88,82,69,29.91,29.78,10,3,10,0.00
2013-11-21,87.8,76.9,71.9,74.3,70.6,68.5,91,81,61,30.00,29.89,14,4,14,0.00
2013-11-22,86.3,77.3,71.7,73.0,69.5,60.8,89,78,47,30.00,29.90,10,2,10,0.00
2013-11-23,86.7,73.8,-21.1,70.8,65.8,-22.9,92,77,54,29.94,29.83,14,1,14,0.00
2013-11-24,71.2,66.9,60.4,66.6,60.4,-15.1,91,80,71,30.04,29.85,19,5,19,0.00
2013-11-25,78.0,68.8,60.4,63.7,59.0,52.8,82,71,59,30.04,29.85,18,4,18,0.00
2013-11-26,83.1,74.2,68.7,74.4,70.1,63.5,94,87,74,29.85,29.58,28,5,28,0.26
2013-11-27,73.2,64.6,30.0,71.2,57.1,23.7,94,77,66,30.03,29.56,13,3,13,0.04
2013-11-28,64.7,53.5,42.9,50.0,42.5,33.6,80,67,49,30.16,30.03,13,3,13,0.00
2013-11-29,73.7,62.4,54.3,58.5,53.6,-19.8,86,74,55,30.17,30.07,15,4,15,0.00
2013-11-30,77.1,66.1,57.0,64.6,58.5,29.1,89,77,34,30.13,29.98,16,4,16,0.00
2013-12-1,77.0,66.1,61.3,66.9,61.1,34.3,92,84,70,30.01,29.80,10,1,10,0.00
2013-12-2,71.7,65.6,60.9,62.9,58.8,56.3,92,79,62,29.81,29.67,8,0,8,0.00
2013-12-3,81.1,70.6,61.3,67.6,63.5,34.1,89,79,34,29.80,29.70,11,1,11,0.00
2013-12-4,87.4,75.4,68.7,73.5,68.6,65.3,90,80,62,29.89,29.77,14,1,14,0.00
2013-12-5,85.8,74.6,68.7,70.4,67.1,58.8,89,79,57,29.98,29.89,8,1,8,0.00
2013-12-6,86.7,74.8,67.2,74.5,68.9,42.2,94,83,34,29.99,29.90,16,2,16,19.39
2013-12-7,86.9,75.7,68.5,72.9,68.2,65.4,91,79,54,30.06,29.95,14,0,14,0.00
2013-12-8,87.6,75.6,68.5,72.9,68.0,64.9,91,78,58,30.04,29.91,14,0,14,0.00
2013-12-9,86.5,75.7,70.1,74.6,69.3,66.2,90,81,65,30.00,29.90,17,2,17,0.00
2013-12-10,85.2,74.9,66.0,74.0,69.3,63.0,92,83,68,29.99,29.90,14,1,14,0.00
2013-12-11,83.8,72.7,65.4,69.4,65.4,59.5,88,79,61,30.06,29.96,11,2,11,0.00
2013-12-12,73.4,66.3,57.3,65.0,53.6,36.6,92,67,37,30.13,30.01,15,3,15,0.00
2013-12-13,78.0,65.0,54.5,59.8,53.0,39.8,81,66,45,30.11,29.91,12,2,12,0.00
2013-12-14,86.9,74.8,66.5,72.9,67.9,48.7,89,79,62,29.93,29.76,21,4,21,0.00
2013-12-15,74.4,69.3,60.6,72.5,63.7,-17.6,94,83,68,29.96,29.71,14,2,14,0.04
2013-12-16,67.8,59.2,53.2,55.1,48.8,45.1,83,69,48,30.05,29.93,13,2,13,0.00
2013-12-17,72.6,59.9,51.4,52.9,47.9,-7.7,81,66,48,30.08,29.97,12,1,12,0.00
2013-12-18,73.0,61.0,52.3,53.8,48.9,-4.4,87,67,39,30.11,30.01,14,1,14,0.00
2013-12-19,78.4,63.7,49.8,61.5,52.2,-26.1,83,68,46,30.09,29.97,8,1,8,0.00
2013-12-20,86.5,73.2,63.6,69.5,63.7,56.8,84,73,56,30.01,29.89,10,1,10,0.00
2013-12-21,88.3,75.9,67.8,73.5,68.6,49.2,91,79,60,29.95,29.82,15,2,15,0.00
2013-12-22,86.9,76.4,70.5,75.3,70.3,-3.4,92,82,67,29.95,29.87,24,3,24,0.00
2013-12-23,85.8,76.0,69.9,76.0,71.4,-2.9,94,86,48,29.98,29.91,19,3,19,0.00
2013-12-24,74.4,65.4,54.8,71.6,52.5,37.5,91,66,34,30.08,29.94,16,3,16,0.00
2013-12-25,77.7,63.3,50.7,60.6,50.8,38.2,73,64,54,30.08,29.93,14,3,14,0.00
2013-12-26,78.6,68.4,61.3,64.2,59.8,-25.8,86,75,57,30.02,29.90,12,2,12,0.00
2013-12-27,72.1,66.4,62.2,66.3,61.8,-4.7,89,85,79,30.06,29.94,13,4,13,0.02
2013-12-28,80.9,72.2,65.6,71.0,67.1,-2.2,93,85,71,30.03,29.80,14,2,14,0.00
2013-12-29,77.1,70.6,-21.0,73.3,67.5,-22.8,93,90,34,29.84,29.70,19,2,19,1.28
2013-12-30,68.2,63.6,61.5,61.8,60.1,34.7,94,89,34,30.01,20.01,4,0,4,0.05
2013-12-31,68.7,64.8,61.5,57.7,54.2,52.5,82,69,58,30.11,29.97,10,2,10,0.00
2014-1-1,64.7,62.4,60.0,62.7,58.5,51.6,94,87,65,30.07,29.86,28,3,28,0.14
2014-1-2,80.7,70.3,61.1,74.6,67.5,55.9,95,91,80,29.87,20.50,25,3,25,21.39